Regional Weather Roundup
Issued by NWS Green Bay, WI

Home | Current Version | Previous Version | Text Only | Print | Product List | Glossary On
Versions: 1 2 3 4 5 6 7 8 9 10 11 12 13 14 15 16 17 18 19 20 21 22 23 24 25 26 27 28 29 30 31 32 33 34 35 36 37 38 39 40 41 42 43 44 45 46 47 48 49 50
000
ASUS43 KGRB 311300
RWRGRB

NORTH-CENTRAL AND NORTHEAST WISCONSIN REGIONAL WEATHER ROUNDUP
NATIONAL WEATHER SERVICE GREEN BAY WI
800 AM CDT MON AUG 31 2015

WIZ005-009-010>012-018-019-311400-
NORTH CENTRAL WISCONSIN

CITY           SKY/WX    TMP DP  RH WIND       PRES   REMARKS
IRONWOOD       SUNNY     64  63  94 S7        29.92S
MANITOWISH WTR NOT AVBL
ARBOR VITAE    NOT AVBL
EAGLE RIVER    NOT AVBL
LAND O LAKES   NOT AVBL
RHINELANDER    CLOUDY    65  62  90 SW7       30.02F FOG
PHILLIPS       CLOUDY    63  63 100 SW5       30.00S FOG
ANTIGO         NOT AVBL
TOMAHAWK       NOT AVBL
MERRILL        CLOUDY    63  63 100 SW3       30.04R FOG
$$

WIZ013-073-311400-
NORTHEAST WISCONSIN

CITY           SKY/WX    TMP DP  RH WIND       PRES   REMARKS
IRON MOUNTAIN  MOSUNNY   61  60  97 SE5       29.99R FOG
MARINETTE      CLOUDY    64  61  88 W5        29.99S
$$

WIZ017-030-035>037-045-311400-
CENTRAL WISCONSIN

CITY           SKY/WX    TMP DP  RH WIND       PRES   REMARKS
MEDFORD        NOT AVBL
WAUSAU         CLOUDY    62  62 100 S5        30.02R FOG
MOSINEE        FOG       61  61 100 S5        30.04S VSB 1/4
MARSHFIELD     FOG       62  59  90 S5        30.03S VSB 1/4
WISC RAPIDS    CLOUDY    63  61  93 SW5       30.05S FOG
STEVENS POINT  NOT AVBL
WAUPACA        NOT AVBL
SHAWANO        NOT AVBL
CLINTONVILLE   FOG       61  61 100 SW7       30.03S VSB 1/4
WAUTOMA        NOT AVBL
$$

WIZ038-039-048-051-311400-
FOX VALLEY

CITY           SKY/WX    TMP DP  RH WIND       PRES   REMARKS
NWS GREEN BAY  FOG       64  63  96 SW7       30.03R VSB 1/4
APPLETON       CLOUDY    63  63 100 S7        30.03R FOG
OSHKOSH        CLOUDY    63  61  93 S6        30.04S FOG
FOND DU LAC    CLOUDY    63  62  97 SW3       30.05S FOG
$$

WIZ022-050-052-311400-
EAST CENTRAL WISCONSIN

CITY           SKY/WX    TMP DP  RH WIND       PRES   REMARKS
EPHRAIM        FOG       62  62  99 W8        29.99S VSB 1/2
STURGEON BAY   SUNNY     64  63  94 W6        30.03S
MANITOWOC      NOT AVBL
SHEBOYGAN      SUNNY     62  62 100 S3        30.05R FOG
$$

LMZ563-521-522-541>543-311400-
LAKESHORE

STATION/POSITION TIME  TEMP    WIND        PRES    VSBY  WAVE
                       AIR SEA DIR/SP/G                  HT/PER
                 (UTC) (F)     (DEG/KT/KT) (MB)    (MI)  (FT/S)
SHEBOYGAN LKSHOR 1200   59     190/  6/  6 1017.5R
NORTHPORT PIER   1200   66      CALM  /  3 1015.6R
N MID LAKE BUOY  1150   64 65  220/ 10/ 12 1015.3R         2/ 4
S GREEN BAY BUOY 1200   64 63  220/ 10/ 14 1017.5R
CHAMBERS ISLAND  1200   62     210/  7/ 11 1015.6R
$$


USA.gov is the U.S. government's official web portal to all federal, state and local government web resources and services.